GW1010 Weather Reports


time (UTC)temp
C
wind
direction
speed
KPH
gust
KPH
rain 1hr
cm
rain 24hr
cm
rain mn
cm
humidity
%
barometer
mb
20260503212028 19 236 3.2 11.3 0.00 0.00 0.00 51 1014.0
20260503211539 19 276 1.6 11.3 0.00 0.00 0.00 51 1014.0
20260503211029 19 207 4.8 11.3 0.00 0.00 0.00 50 1014.1
20260503210533 20 246 3.2 11.3 0.00 0.00 0.00 51 1014.0
20260503210039 19 234 1.6 9.7 0.00 0.00 0.00 52 1014.0
20260503205528 19 276 3.2 11.3 0.00 0.00 0.00 50 1014.1
20260503205028 20 103 4.8 11.3 0.00 0.00 0.00 48 1014.1
20260503204544 20 99 1.6 9.7 0.00 0.00 0.00 51 1014.2
20260503204031 19 141 1.6 11.3 0.00 0.00 0.00 51 1014.2
20260503203530 19 250 3.2 11.3 0.00 0.00 0.00 52 1014.2
20260503203043 18 351 3.2 8.0 0.00 0.00 0.00 51 1014.3
20260503202529 19 86 3.2 8.0 0.00 0.00 0.00 48 1014.3
20260503202027 19 239 0.0 11.3 0.00 0.00 0.00 50 1014.4
20260503201541 19 0 1.6 11.3 0.00 0.00 0.00 50 1014.3
20260503201030 19 226 3.2 9.7 0.00 0.00 0.00 50 1014.3
20260503200528 20 0 3.2 9.7 0.00 0.00 0.00 50 1014.2
20260503200041 20 131 1.6 9.7 0.00 0.00 0.00 50 1014.3
20260503195529 20 273 1.6 9.7 0.00 0.00 0.00 51 1014.4
20260503195032 19 323 3.2 11.3 0.00 0.00 0.00 51 1014.6
20260503194544 19 96 1.6 11.3 0.00 0.00 0.00 52 1014.7
20260503194028 19 133 4.8 11.3 0.00 0.00 0.00 50 1014.8
20260503193530 19 134 3.2 11.3 0.00 0.00 0.00 50 1014.8
20260503193047 19 231 0.0 11.3 0.00 0.00 0.00 51 1014.9
20260503192527 19 68 3.2 12.9 0.00 0.00 0.00 51 1014.9
20260503192027 18 41 1.6 12.9 0.00 0.00 0.00 53 1014.9
20260503191541 18 153 3.2 9.7 0.00 0.00 0.00 54 1014.9
20260503191031 18 132 3.2 8.0 0.00 0.00 0.00 53 1015.0
20260503190528 17 0 0.0 4.8 0.00 0.00 0.00 55 1015.1
20260503190045 17 233 1.6 4.8 0.00 0.00 0.00 56 1015.1
20260503185527 17 259 1.6 8.0 0.00 0.00 0.00 56 1015.1
20260503185027 18 0 3.2 9.7 0.00 0.00 0.00 56 1015.1
20260503184542 18 0 1.6 9.7 0.00 0.00 0.00 55 1015.1
20260503184028 18 110 1.6 8.0 0.00 0.00 0.00 56 1015.2
20260503183526 17 205 1.6 6.4 0.00 0.00 0.00 59 1015.2
20260503183105 17 281 1.6 6.4 0.00 0.00 0.00 59 1015.2
20260503182528 17 0 1.6 6.4 0.00 0.00 0.00 59 1015.2
20260503182028 17 117 1.6 6.4 0.00 0.00 0.00 59 1015.2
20260503181607 17 136 1.6 6.4 0.00 0.00 0.00 62 1015.2
20260503181028 16 77 3.2 6.4 0.00 0.00 0.00 63 1015.3
20260503180528 16 184 1.6 8.0 0.00 0.00 0.00 64 1015.3
20260503180043 16 0 1.6 8.0 0.00 0.00 0.00 64 1015.3
20260503175527 15 144 1.6 6.4 0.00 0.00 0.00 65 1015.2
20260503175028 15 124 0.0 8.0 0.00 0.00 0.00 68 1015.3
20260503174543 15 135 3.2 8.0 0.00 0.00 0.00 68 1015.3
20260503174028 15 117 0.0 6.4 0.00 0.00 0.00 69 1015.4
20260503173527 15 146 1.6 8.0 0.00 0.00 0.00 69 1015.3
20260503173036 15 236 1.6 8.0 0.00 0.00 0.00 69 1015.3
20260503172531 15 245 1.6 8.0 0.00 0.00 0.00 69 1015.3
20260503172031 15 121 1.6 9.7 0.00 0.00 0.00 70 1015.2
20260503171537 15 267 3.2 9.7 0.00 0.00 0.00 71 1015.2
20260503171028 14 153 0.0 6.4 0.00 0.00 0.00 73 1015.2
20260503170529 14 106 1.6 11.3 0.00 0.00 0.00 74 1015.2
20260503150527 12 0 0.0 4.8 0.00 0.00 0.00 81 1014.3
20260503131033 8 0 0.0 0.0 0.00 0.00 0.00 93 1013.4
20260503130527 8 0 0.0 0.0 0.00 0.00 0.00 93 1013.3
20260503110527 8 0 0.0 0.0 0.00 0.00 0.00 89 1013.0
20260503081543 12 0 0.0 3.2 0.00 0.00 0.00 82 1013.5
20260503081028 12 0 0.0 3.2 0.00 0.00 0.00 83 1013.6
20260503080528 12 0 0.0 4.8 0.00 0.00 0.00 83 1013.6
20260503072527 12 0 0.0 1.6 0.00 0.00 0.00 84 1013.3
20260503072028 12 0 0.0 1.6 0.00 0.00 0.00 84 1013.3
20260503071538 12 0 0.0 3.2 0.00 0.00 0.00 84 1013.2
20260503071027 12 0 0.0 3.2 0.00 0.00 0.00 84 1013.2
20260503070528 12 255 0.0 4.8 0.00 0.00 0.00 84 1013.2
20260503055027 11 0 0.0 0.0 0.00 0.00 0.00 87 1012.9
20260503054541 11 0 0.0 3.2 0.00 0.00 0.00 87 1012.8
20260503054029 11 0 0.0 3.2 0.00 0.00 0.00 88 1012.8
20260503053528 11 0 0.0 3.2 0.00 0.00 0.00 88 1012.8
20260503053043 11 0 0.0 0.0 0.00 0.00 0.00 89 1012.8
20260503052529 11 0 0.0 0.0 0.00 0.00 0.00 89 1012.7
20260503052029 11 0 0.0 0.0 0.00 0.00 0.00 89 1012.8
20260503051544 11 0 0.0 0.0 0.00 0.00 0.00 89 1012.7
20260503051027 11 0 0.0 0.0 0.00 0.00 0.00 89 1012.5
20260503050527 11 0 0.0 0.0 0.00 0.00 0.00 89 1012.6
20260503050045 11 0 0.0 0.0 0.00 0.00 0.00 90 1012.7
20260503045528 11 0 0.0 0.0 0.00 0.00 0.00 90 1012.8
20260503045031 10 0 0.0 0.0 0.00 0.00 0.00 90 1012.5
20260503044541 10 0 0.0 0.0 0.00 0.00 0.00 89 1012.4
20260503044028 11 0 0.0 1.6 0.00 0.00 0.00 89 1012.3
20260503043528 11 0 0.0 1.6 0.00 0.00 0.00 89 1012.2
20260503043037 11 0 0.0 3.2 0.00 0.00 0.00 89 1012.0
20260503042528 11 0 0.0 3.2 0.00 0.00 0.00 89 1011.9
20260503042028 11 149 0.0 6.4 0.00 0.00 0.00 88 1012.1
20260503041543 11 0 0.0 6.4 0.00 0.00 0.00 88 1012.1
20260503041031 11 0 0.0 3.2 0.00 0.00 0.00 88 1012.1
20260503040528 11 0 0.0 3.2 0.00 0.00 0.00 88 1011.9
20260503040044 11 0 0.0 3.2 0.00 0.00 0.00 88 1012.0
20260503035527 11 238 0.0 4.8 0.00 0.00 0.00 87 1012.0
20260503035027 11 0 0.0 4.8 0.00 0.00 0.00 87 1011.8
20260503034538 11 0 1.6 4.8 0.00 0.00 0.00 87 1011.9
20260503034026 11 143 0.0 4.8 0.00 0.00 0.00 87 1011.9
20260503033527 11 0 0.0 8.0 0.00 0.00 0.00 86 1011.9
20260503033047 11 108 0.0 8.0 0.00 0.00 0.00 86 1011.9
20260503032528 11 130 1.6 8.0 0.00 0.00 0.00 86 1011.9
20260503032028 11 0 0.0 3.2 0.00 0.00 0.00 85 1011.8
20260503031542 12 0 0.0 3.2 0.00 0.00 0.00 85 1011.9
20260503031029 12 141 0.0 3.2 0.00 0.00 0.00 85 1011.9
20260503030527 12 0 0.0 3.2 0.00 0.00 0.00 84 1011.9
20260503030043 12 0 0.0 3.2 0.00 0.00 0.00 84 1011.9
20260503025527 12 0 0.0 4.8 0.00 0.00 0.00 83 1011.9
20260503025029 12 0 0.0 4.8 0.00 0.00 0.00 83 1011.9
20260503024542 12 0 0.0 4.8 0.00 0.00 0.00 82 1011.8
20260503024027 12 0 0.0 4.8 0.00 0.00 0.00 81 1011.7
20260503023527 13 141 0.0 4.8 0.00 0.00 0.00 81 1011.8
20260503023044 13 141 0.0 8.0 0.00 0.00 0.00 80 1011.8
20260503022527 13 143 0.0 12.9 0.00 0.00 0.00 80 1011.7
20260503022036 13 0 3.2 12.9 0.00 0.00 0.00 79 1011.7
20260503021543 13 153 0.0 11.3 0.00 0.00 0.00 78 1011.6
20260503021030 13 143 3.2 12.9 0.00 0.00 0.00 78 1011.5
20260503020528 14 128 1.6 12.9 0.00 0.00 0.00 78 1011.5
20260503020044 14 120 4.8 14.5 0.00 0.00 0.00 77 1011.6
20260503015528 14 94 1.6 14.5 0.00 0.00 0.00 76 1011.5
20260503015027 15 233 1.6 11.3 0.00 0.00 0.00 75 1011.6
20260503014543 15 0 1.6 11.3 0.00 0.00 0.00 75 1011.5
20260503014028 15 255 1.6 9.7 0.00 0.00 0.00 74 1011.5
20260503013529 15 195 3.2 9.7 0.00 0.00 0.00 73 1011.5
20260503013051 16 326 1.6 9.7 0.00 0.00 0.00 72 1011.5
20260503012528 16 143 3.2 9.7 0.00 0.00 0.00 70 1011.4
20260503012027 16 0 1.6 9.7 0.00 0.00 0.00 69 1011.4
20260503011540 17 149 1.6 9.7 0.00 0.00 0.00 67 1011.5
20260503011036 17 167 1.6 9.7 0.00 0.00 0.00 66 1011.4
20260503010529 17 135 1.6 8.0 0.00 0.00 0.00 65 1011.3
20260503005528 18 147 1.6 9.7 0.00 0.00 0.00 64 1011.5
20260503005030 18 113 1.6 9.7 0.00 0.00 0.00 63 1011.5
20260503004543 18 246 1.6 11.3 0.00 0.00 0.00 63 1011.4
20260503004027 18 129 3.2 12.9 0.00 0.00 0.00 62 1011.4
20260503003527 19 131 3.2 12.9 0.00 0.00 0.00 62 1011.4
20260503003043 19 129 3.2 12.9 0.00 0.00 0.00 61 1011.4
20260503002527 19 243 3.2 12.9 0.00 0.00 0.00 61 1011.3
20260503002027 20 233 3.2 9.7 0.00 0.00 0.00 60 1011.3
20260503001601 20 245 1.6 9.7 0.00 0.00 0.00 60 1011.3
20260503001030 20 124 3.2 9.7 0.00 0.00 0.00 59 1011.5
20260503000528 20 134 3.2 12.9 0.00 0.00 0.00 60 1011.4
20260503000106 20 246 4.8 12.9 0.00 0.00 0.00 59 1011.4
20260502235527 20 217 1.6 11.3 0.00 0.00 0.00 59 1011.5
20260502235030 20 145 1.6 8.0 0.00 0.00 0.00 58 1011.4
20260502234546 20 155 3.2 12.9 0.00 0.00 0.00 59 1011.4
20260502234028 20 245 3.2 12.9 0.00 0.00 0.00 57 1011.4
20260502233528 20 240 3.2 9.7 0.00 0.00 0.00 58 1011.3
20260502233044 21 323 3.2 16.1 0.00 0.00 0.00 58 1011.4
20260502232529 21 129 3.2 16.1 0.00 0.00 0.00 58 1011.4
20260502232027 21 150 1.6 8.0 0.00 0.00 0.00 57 1011.4
20260502231544 21 152 3.2 9.7 0.00 0.00 0.00 57 1011.4
20260502231029 21 125 3.2 11.3 0.00 0.00 0.00 57 1011.4
20260502230529 21 101 3.2 12.9 0.00 0.00 0.00 57 1011.5
20260502230041 21 262 3.2 12.9 0.00 0.00 0.00 57 1011.5
20260502225530 21 125 1.6 12.9 0.00 0.00 0.00 58 1011.6
20260502225028 21 158 4.8 12.9 0.00 0.00 0.00 56 1011.7
20260502224543 21 78 3.2 12.9 0.00 0.00 0.00 57 1011.8
20260502224028 21 92 4.8 11.3 0.00 0.00 0.00 56 1011.9
20260502223531 21 122 3.2 11.3 0.00 0.00 0.00 57 1012.0
20260502223037 21 195 4.8 11.3 0.00 0.00 0.00 57 1012.1
20260502222531 21 227 3.2 8.0 0.00 0.00 0.00 56 1012.2
20260502222028 21 145 3.2 8.0 0.00 0.00 0.00 57 1012.3
20260502221546 21 121 1.6 14.5 0.00 0.00 0.00 58 1012.3
20260502221028 21 243 3.2 14.5 0.00 0.00 0.00 58 1012.4
20260502220526 20 277 3.2 14.5 0.00 0.00 0.00 60 1012.5
20260502220044 20 72 4.8 16.1 0.00 0.00 0.00 59 1012.7
20260502215529 20 218 4.8 17.7 0.00 0.00 0.00 59 1012.7
20260502215030 20 122 4.8 19.3 0.00 0.00 0.00 59 1012.8
20260502214551 20 72 3.2 19.3 0.00 0.00 0.00 60 1012.9
20260502214030 20 75 6.4 16.1 0.00 0.00 0.00 59 1013.0
20260502213528 21 246 4.8 11.3 0.00 0.00 0.00 58 1013.1
20260502213043 21 240 3.2 12.9 0.00 0.00 0.00 58 1013.1
20260502212528 21 140 3.2 12.9 0.00 0.00 0.00 60 1013.2